Aérodrome :
LOGIN :

S'inscrire | Disclaimer

   EN    FR    IT 

 










Légende :    VFR   VFR Marginal   IFR   IFR Intensif   IFR Très Intensif
Visi : 
Plafond : 
>= 8 km
>= 3000ft
5 à 8 km
1000 à 3000 ft
1500m à 5 km
500 à 1000 ft
800 à 1500m
200 à 500 ft
< 800m
< 200 ft
Symboles :   Orages  Brouillard  Fortes neiges  Fortes précipitations  Vent > 20 kt
SIGMETs :   Divers  Orages  Givrage  Turbulence  Onde Orograph.  Cendres Volcan.







- Altitude de l'aérodrome : 479 ft
- Code IATA : DOL
- Voir les cartes d'approche


LFRG - Deauville

DERNIER METAR :
  • 181730Z AUTO 03007KT 360V070 CAVOK 14/11 Q1023 NOSIG

METARs EXPIRÉS :
  • 181700Z AUTO 03007KT 9999 FEW023 15/11 Q1023 NOSIG
  • 181630Z AUTO 03008KT 010V070 CAVOK 15/11 Q1023 NOSIG
  • 181600Z AUTO 04007KT 010V080 CAVOK 16/11 Q1022 NOSIG
  • 181530Z AUTO 04009KT 010V080 9999 BKN026 16/11 Q1022 NOSIG
  • 181500Z AUTO 03009KT 360V070 9999 BKN026 17/11 Q1023 NOSIG

TAF TAF LFRG
Valide du 18 à 15h jusqu'au 19 à 00h UTC


181400Z 1815/1824 05010KT 9999 BKN025
BECMG 1821/1824 06005KT
ATIS : +33 2 31 65 65 36
Pas de NOTAMs connus pour ce terrain.



MET'MAP, la Météo Aéronautique d'un coup d'oeil ! - Copyright ORBIFLY Décembre 2007 - Disclaimer

ORBIFLY MET'MAP TEAM :

Programmation & Développement : Alexandra Zaïnal
Conception & Développement : Baudouin d'Aumeries
Co-Programmation & Développement : Marc-Olivier Méhu
Soutien technique & logistique : Manuel Goepfert

Contact : metmap@orbifly.com




SOURCES & CREDITS :

   NOAA